Simultaneous Nadir Overpasses (SNOs) Predictions

Prediction of SNOs between NOAA-20 and AQUA Satellite Orbit:

Table of predicted SNOs for the next 14.0 days since TLE Epoch: 5/7/2022
Index Date (NOAA-20) Time (NOAA-20) Lat,Lon (NOAA-20) SZA (NOAA-20 ) Date (AQUA) Time (AQUA) Lat,Lon (AQUA) SZA (AQUA ) Distance(km) Time Diff (sec)
1 05/07/2022 17:59:25 -77.56, -24.74 101.57 05/07/2022 17:59:49 -77.57, -24.66 101.60 1.92 24
2 05/07/2022 18:49:53 78.23, 145.96 77.51 05/07/2022 18:48:59 78.24, 146.04 77.54 2.06 54
3 05/10/2022 09:25:37 77.46, -76.74 77.88 05/10/2022 09:26:31 77.46, -76.76 77.84 0.51 54
4 05/10/2022 10:16:06 -78.14, 93.92 103.06 05/10/2022 10:15:43 -78.14, 93.90 103.04 0.62 23
5 05/13/2022 01:42:21 77.92, 41.22 76.59 05/13/2022 01:42:27 77.92, 41.22 76.59 0.17 6
6 05/13/2022 02:32:52 -78.50,-148.31 104.24 05/13/2022 02:31:41 -78.50,-148.34 104.18 0.65 71
7 05/15/2022 17:08:41 -77.54, -12.18 103.52 05/15/2022 17:09:16 -77.54, -12.08 103.57 2.65 35
8 05/15/2022 17:59:09 78.20, 158.46 75.57 05/15/2022 17:58:26 78.21, 158.57 75.58 2.74 43
9 05/18/2022 08:34:55 77.29, -64.85 76.24 05/18/2022 08:35:58 77.29, -64.74 76.16 2.75 63
10 05/18/2022 09:25:23 -78.03, 105.98 104.77 05/18/2022 09:25:09 -78.03, 106.07 104.78 2.29 14
11 05/21/2022 00:51:33 77.99, 54.23 74.75 05/21/2022 00:51:47 77.98, 54.20 74.74 0.65 14



Historial Predications of SNOs between NOAA-20 and AQUA
